EW3154 Weather Reports


time (UTC)temp
F
wind
direction
speed
knots
gust
knots
rain 1hr
in
rain 24hr
in
rain mn
in
humidity
%
barometer
mb
20260506211547 53 94 0.0 0.0 0.00 0.46 0.46 98 1011.3
20260506210047 54 94 0.0 0.0 0.00 0.46 0.46 98 1011.3
20260506204546 54 94 0.0 0.0 0.00 0.46 0.46 98 1011.2
20260506203047 54 94 0.0 0.0 0.03 0.46 0.46 97 1011.0
20260506201545 54 94 0.0 0.0 0.03 0.46 0.46 97 1010.9
20260506200117 54 15 0.0 0.0 0.03 0.46 0.46 98 1010.8
20260506194544 54 15 0.0 0.0 0.03 0.46 0.46 98 1010.7
20260506193046 54 15 0.0 0.0 0.00 0.43 0.43 97 1010.4
20260506191546 55 15 0.0 0.0 0.08 0.43 0.43 97 1010.5
20260506190045 55 15 0.0 0.0 0.10 0.43 0.43 97 1010.4
20260506184543 55 91 0.0 0.0 0.13 0.43 0.43 97 1010.2
20260506183042 55 91 0.0 0.0 0.13 0.43 0.43 97 1010.0
20260506181543 55 64 0.0 0.0 0.05 0.35 0.35 97 1009.6
20260506180049 55 70 0.0 0.0 0.02 0.32 0.31 97 1009.6
20260506174540 55 70 0.0 0.0 0.00 0.31 0.30 96 1009.6
20260506173039 55 166 0.0 0.0 0.00 0.31 0.30 97 1009.6
20260506171549 56 103 0.0 0.0 0.00 0.31 0.30 97 1009.6
20260506170038 56 103 0.0 0.0 0.01 0.31 0.30 97 1009.8
20260506164538 56 134 0.0 0.0 0.02 0.31 0.30 97 1009.9
20260506163046 56 109 0.0 0.0 0.02 0.31 0.30 97 1009.9
20260506161547 56 82 0.0 0.0 0.02 0.31 0.30 96 1010.0
20260506160033 56 83 0.0 0.0 0.02 0.30 0.28 96 1010.2
20260506154531 56 76 0.0 0.9 0.06 0.28 0.28 96 1010.2
20260506153031 55 97 0.0 0.0 0.06 0.28 0.28 97 1010.5
20260506151530 55 40 0.0 0.0 0.06 0.28 0.28 97 1010.6
20260506150033 55 141 0.0 0.0 0.04 0.28 0.27 97 1010.6
20260506144528 55 126 0.0 0.0 0.00 0.24 0.23 96 1010.3
20260506143027 55 127 0.0 0.0 0.00 0.24 0.23 96 1010.5
20260506141525 55 88 0.0 0.0 0.00 0.24 0.23 95 1010.6
20260506140024 55 117 0.0 4.3 0.00 0.24 0.23 94 1010.8
20260506134553 55 94 0.0 0.0 0.00 0.24 0.23 95 1010.9
20260506133022 55 82 0.0 0.0 0.00 0.24 0.23 95 1011.1
20260506131526 55 61 0.0 0.0 0.01 0.24 0.23 95 1011.1
20260506130021 55 62 0.0 0.0 0.01 0.24 0.23 95 1011.1
20260506124519 55 94 0.0 0.0 0.02 0.24 0.23 96 1011.1
20260506123019 55 80 0.0 4.3 0.02 0.24 0.23 95 1011.1
20260506121518 55 53 0.0 0.0 0.01 0.23 0.22 96 1011.2
20260506120018 55 107 0.0 0.0 0.01 0.23 0.22 95 1011.2
20260506114524 55 103 0.0 7.0 0.01 0.22 0.21 95 1011.2
20260506113018 55 55 0.0 0.0 0.01 0.22 0.21 96 1011.3
20260506111515 55 61 0.0 0.0 0.01 0.22 0.21 95 1011.4
20260506110017 55 71 0.0 0.0 0.02 0.22 0.21 94 1011.6
20260506104514 56 66 0.0 0.0 0.02 0.21 0.20 95 1011.8
20260506103022 56 88 0.0 0.0 0.02 0.21 0.20 95 1011.6
20260506101513 56 61 0.9 7.8 0.03 0.21 0.20 95 1011.6
20260506100018 56 85 0.0 0.0 0.07 0.20 0.19 96 1011.9
20260506094515 56 74 0.0 0.0 0.08 0.19 0.18 97 1012.0
20260506093010 56 69 0.0 0.0 0.09 0.19 0.18 97 1012.2
20260506091508 55 69 0.0 0.0 0.09 0.18 0.17 97 1012.1
20260506090007 55 69 0.0 0.0 0.06 0.13 0.12 97 1012.0
20260506084506 55 69 0.0 0.0 0.06 0.11 0.10 96 1011.9
20260506083006 54 69 0.0 0.0 0.07 0.10 0.09 96 1011.7
20260506081506 54 69 0.0 0.0 0.06 0.09 0.09 97 1011.5
20260506073003 55 72 0.0 0.0 0.01 0.03 0.02 95 1011.6
20260506071502 55 81 0.0 0.0 0.01 0.03 0.02 94 1011.7
20260506061558 56 30 0.0 0.0 0.00 0.02 0.02 95 1011.2
20260506044546 52 16 0.0 0.0 0.00 0.02 0.02 98 1011.4
20260506043042 52 16 0.0 0.0 0.00 0.02 0.02 98 1011.5
20260506041541 52 82 0.0 0.0 0.00 0.02 0.02 98 1011.5
20260506040041 52 82 0.0 0.0 0.00 0.02 0.02 98 1011.4
20260506034540 52 82 0.0 0.0 0.00 0.02 0.02 97 1011.4
20260506033037 52 82 0.0 0.0 0.00 0.02 0.02 97 1011.5
20260506031539 52 82 0.0 0.0 0.00 0.02 0.02 97 1011.7
20260506030036 52 82 0.0 0.0 0.00 0.02 0.02 97 1011.6
20260506024539 52 82 0.0 0.0 0.00 0.02 0.02 97 1011.7
20260506023035 52 82 0.0 0.0 0.00 0.02 0.02 97 1011.9
20260506021534 52 82 0.0 0.0 0.01 0.02 0.02 97 1011.9
20260506020033 52 82 0.0 0.0 0.01 0.02 0.02 97 1012.0
20260506014532 52 82 0.0 0.0 0.01 0.02 0.02 97 1011.8
20260506013033 52 82 0.0 0.0 0.01 0.02 0.02 97 1011.8
20260506011558 52 82 0.0 0.0 0.00 0.02 0.01 97 1011.7
20260506010031 52 82 0.0 0.0 0.00 0.02 0.01 97 1011.7
20260506004532 52 82 0.0 0.0 0.00 0.02 0.01 97 1011.7
20260506003029 52 82 0.0 0.0 0.00 0.02 0.01 97 1011.5
20260506001528 52 82 0.0 0.0 0.00 0.02 0.01 96 1011.7
20260506000043 53 82 0.0 0.0 0.00 0.02 0.01 96 1012.0
20260505234538 53 82 0.0 0.0 0.00 0.02 0.01 96 1012.1
20260505233021 53 82 0.0 0.0 0.00 0.02 0.01 96 1012.2
20260505231521 53 82 0.0 0.0 0.00 0.02 0.01 96 1012.5
20260505230044 53 87 0.0 0.0 0.00 0.02 0.01 96 1012.5
20260505224533 53 177 0.0 0.0 0.01 0.02 0.01 96 1012.6
20260505223022 53 70 0.0 0.9 0.01 0.02 0.01 96 1012.5
20260505221518 53 87 0.0 0.0 0.01 0.02 0.01 96 1012.7
20260505220015 53 87 0.0 0.0 0.00 0.01 0.00 96 1012.6
20260505214520 53 87 0.0 0.0 0.00 0.01 0.01 96 1012.7
20260505213016 53 87 0.0 0.0 0.00 0.01 0.01 96 1012.7